When you browse on this site, cookies collect data to enhance your experience and personalize the content and advertising you see.
Visit our Privacy Policy to learn more. By continuing to use the site, you agree to this use of cookies and data.
  • în România
  • Lista ţărilor
  • Pe 7 zile
  • Temperatura apei
  • Hartă satelitară
  • Meteo pe hartă
  • Widget-uri
  • user-avatar
    Intrare

    Meteo pe oră la Maracay

    Astăzi, 18 Februarie, Luni

    Timp Temperatura Precipitaţii Vânt Presiune Umiditate
    00:00 +24°C° 0.2 mm 2 m/s 712 mmHg 82%
    01:00 +24°C° 0 mm 1 m/s 712 mmHg 84%
    02:00 +24°C° 0 mm 1 m/s 712 mmHg 85%
    03:00 +23°C° 0 mm 1 m/s 712 mmHg 86%
    04:00 +23°C° 0 mm 1 m/s 712 mmHg 86%
    05:00 +23°C° 0 mm 1 m/s 712 mmHg 84%
    06:00 +24°C° 0 mm 1 m/s 713 mmHg 82%
    07:00 +24°C° 0 mm 1 m/s 713 mmHg 79%
    08:00 +26°C° 0 mm 1 m/s 714 mmHg 70%
    09:00 +28°C° 0 mm 1 m/s 714 mmHg 60%
    10:00 +31°C° 0 mm 2 m/s 715 mmHg 51%
    11:00 +31°C° 0 mm 2 m/s 714 mmHg 51%
    12:00 +31°C° 0 mm 2 m/s 714 mmHg 50%
    13:00 +31°C° 0 mm 1 m/s 713 mmHg 50%
    14:00 +30°C° 0.1 mm 2 m/s 712 mmHg 54%
    15:00 +29°C° 0.1 mm 2 m/s 712 mmHg 59%
    16:00 +28°C° 0.1 mm 2 m/s 711 mmHg 64%
    17:00 +27°C° 0.1 mm 2 m/s 712 mmHg 70%
    18:00 +25°C° 0.1 mm 1 m/s 712 mmHg 76%
    19:00 +24°C° 0.1 mm 1 m/s 712 mmHg 82%
    20:00 +24°C° 0 mm 1 m/s 712 mmHg 84%
    21:00 +23°C° 0 mm 1 m/s 713 mmHg 86%
    22:00 +23°C° 0 mm 1 m/s 713 mmHg 89%
    23:00 +22°C° 0 mm 1 m/s 713 mmHg 89%

    Mâine, 19 Februarie, Marţi

    Timp Temperatura Precipitaţii Vânt Presiune Umiditate
    00:00 +22°C° 0 mm 1 m/s 712 mmHg 90%
    01:00 +22°C° 0 mm 1 m/s 712 mmHg 91%
    02:00 +22°C° 0 mm 1 m/s 712 mmHg 91%
    03:00 +22°C° 0 mm 1 m/s 712 mmHg 91%
    04:00 +22°C° 0 mm 1 m/s 712 mmHg 91%
    05:00 +22°C° 0 mm 1 m/s 712 mmHg 88%
    06:00 +23°C° 0 mm 1 m/s 713 mmHg 85%
    07:00 +24°C° 0 mm 1 m/s 713 mmHg 82%
    08:00 +26°C° 0 mm 1 m/s 714 mmHg 71%
    09:00 +28°C° 0 mm 1 m/s 714 mmHg 61%
    10:00 +31°C° 0 mm 1 m/s 715 mmHg 51%
    11:00 +32°C° 0 mm 2 m/s 714 mmHg 48%
    12:00 +34°C° 0 mm 2 m/s 713 mmHg 45%
    13:00 +34°C° 0 mm 2 m/s 713 mmHg 42%
    14:00 +32°C° 0 mm 2 m/s 712 mmHg 46%
    15:00 +31°C° 0 mm 2 m/s 711 mmHg 51%
    16:00 +29°C° 0 mm 2 m/s 711 mmHg 56%
    17:00 +28°C° 0 mm 2 m/s 711 mmHg 64%
    18:00 +26°C° 0 mm 2 m/s 711 mmHg 73%
    19:00 +25°C° 0 mm 2 m/s 711 mmHg 81%
    20:00 +24°C° 0 mm 2 m/s 711 mmHg 83%
    21:00 +24°C° 0 mm 2 m/s 712 mmHg 84%
    22:00 +24°C° 0 mm 1 m/s 712 mmHg 85%
    23:00 +23°C° 0 mm 1 m/s 712 mmHg 87%

    Poimâine, 20 Februarie, Miercuri

    Timp Temperatura Precipitaţii Vânt Presiune Umiditate
    00:00 +23°C° 0 mm 1 m/s 712 mmHg 88%
    01:00 +22°C° 0 mm 1 m/s 711 mmHg 89%
    02:00 +22°C° 0 mm 1 m/s 711 mmHg 90%
    03:00 +22°C° 0 mm 1 m/s 711 mmHg 90%
    04:00 +22°C° 0 mm 1 m/s 711 mmHg 91%
    05:00 +23°C° 0 mm 1 m/s 711 mmHg 88%
    06:00 +23°C° 0 mm 1 m/s 712 mmHg 84%
    07:00 +24°C° 0 mm 1 m/s 712 mmHg 81%
    08:00 +26°C° 0 mm 2 m/s 713 mmHg 73%
    09:00 +27°C° 0 mm 2 m/s 714 mmHg 65%
    10:00 +29°C° 0 mm 2 m/s 714 mmHg 57%
    11:00 +30°C° 0 mm 2 m/s 714 mmHg 53%
    12:00 +31°C° 0 mm 2 m/s 713 mmHg 49%
    13:00 +32°C° 0 mm 2 m/s 712 mmHg 45%
    14:00 +31°C° 0 mm 2 m/s 711 mmHg 49%
    15:00 +30°C° 0 mm 2 m/s 711 mmHg 52%
    16:00 +30°C° 0 mm 2 m/s 710 mmHg 56%
    17:00 +28°C° 0 mm 2 m/s 710 mmHg 64%
    18:00 +26°C° 0 mm 2 m/s 710 mmHg 72%
    19:00 +24°C° 0 mm 2 m/s 711 mmHg 80%
    20:00 +24°C° 0 mm 2 m/s 711 mmHg 82%
    21:00 +23°C° 0 mm 2 m/s 711 mmHg 85%
    22:00 +23°C° 0 mm 1 m/s 712 mmHg 87%
    23:00 +22°C° 0 mm 1 m/s 711 mmHg 88%

    21 Februarie, Joi

    Timp Temperatura Precipitaţii Vânt Presiune Umiditate
    00:00 +22°C° 0 mm 1 m/s 711 mmHg 89%
    01:00 +22°C° 0 mm 1 m/s 711 mmHg 90%
    02:00 +22°C° 0 mm 1 m/s 711 mmHg 90%
    03:00 +22°C° 0 mm 1 m/s 711 mmHg 90%
    04:00 +22°C° 0 mm 1 m/s 711 mmHg 90%
    05:00 +22°C° 0 mm 1 m/s 712 mmHg 85%
    06:00 +23°C° 0 mm 1 m/s 712 mmHg 81%
    07:00 +24°C° 0 mm 2 m/s 713 mmHg 77%
    08:00 +26°C° 0 mm 2 m/s 714 mmHg 65%
    09:00 +28°C° 0 mm 2 m/s 714 mmHg 53%
    10:00 +31°C° 0 mm 2 m/s 715 mmHg 42%
    11:00 +31°C° 0 mm 2 m/s 714 mmHg 40%
    12:00 +32°C° 0 mm 2 m/s 713 mmHg 38%
    13:00 +34°C° 0 mm 2 m/s 712 mmHg 36%
    14:00 +32°C° 0 mm 2 m/s 712 mmHg 41%
    15:00 +31°C° 0 mm 3 m/s 711 mmHg 45%
    16:00 +30°C° 0 mm 3 m/s 710 mmHg 50%
    17:00 +28°C° 0 mm 2 m/s 710 mmHg 60%
    18:00 +26°C° 0 mm 2 m/s 711 mmHg 69%
    19:00 +24°C° 0 mm 2 m/s 711 mmHg 79%
    20:00 +24°C° 0 mm 2 m/s 711 mmHg 81%
    21:00 +23°C° 0 mm 2 m/s 712 mmHg 83%
    22:00 +23°C° 0 mm 1 m/s 712 mmHg 86%
    23:00 +23°C° 0 mm 1 m/s 712 mmHg 87%

    22 Februarie, Vineri

    Timp Temperatura Precipitaţii Vânt Presiune Umiditate
    00:00 +22°C° 0 mm 1 m/s 711 mmHg 88%
    01:00 +22°C° 0 mm 1 m/s 711 mmHg 88%
    02:00 +22°C° 0 mm 1 m/s 711 mmHg 89%
    03:00 +22°C° 0 mm 1 m/s 711 mmHg 90%
    04:00 +22°C° 0 mm 1 m/s 711 mmHg 90%
    05:00 +22°C° 0 mm 1 m/s 712 mmHg 86%
    06:00 +23°C° 0 mm 1 m/s 712 mmHg 81%
    07:00 +23°C° 0 mm 1 m/s 713 mmHg 77%
    08:00 +26°C° 0 mm 2 m/s 714 mmHg 63%
    09:00 +29°C° 0 mm 2 m/s 714 mmHg 50%
    10:00 +31°C° 0 mm 2 m/s 715 mmHg 37%
    11:00 +32°C° 0 mm 2 m/s 714 mmHg 35%
    12:00 +34°C° 0 mm 2 m/s 713 mmHg 34%
    13:00 +35°C° 0 mm 2 m/s 712 mmHg 33%
    14:00 +34°C° 0 mm 2 m/s 712 mmHg 36%
    15:00 +33°C° 0 mm 3 m/s 711 mmHg 39%
    16:00 +31°C° 0 mm 3 m/s 711 mmHg 43%
    17:00 +29°C° 0 mm 2 m/s 711 mmHg 53%
    18:00 +27°C° 0 mm 2 m/s 711 mmHg 64%
    19:00 +24°C° 0 mm 2 m/s 712 mmHg 75%
    20:00 +24°C° 0 mm 2 m/s 712 mmHg 78%
    21:00 +23°C° 0 mm 2 m/s 712 mmHg 81%
    22:00 +23°C° 0 mm 2 m/s 712 mmHg 85%
    23:00 +22°C° 0 mm 1 m/s 712 mmHg 87%

    23 Februarie, Sâmbătă

    Timp Temperatura Precipitaţii Vânt Presiune Umiditate
    00:00 +22°C° 0 mm 1 m/s 712 mmHg 88%
    01:00 +22°C° 0 mm 1 m/s 712 mmHg 90%
    02:00 +22°C° 0 mm 1 m/s 712 mmHg 90%
    03:00 +22°C° 0 mm 1 m/s 712 mmHg 90%
    04:00 +22°C° 0 mm 1 m/s 712 mmHg 90%
    05:00 +22°C° 0 mm 1 m/s 712 mmHg 85%
    06:00 +23°C° 0 mm 1 m/s 713 mmHg 81%
    07:00 +24°C° 0 mm 1 m/s 714 mmHg 76%
    08:00 +26°C° 0 mm 2 m/s 714 mmHg 66%
    09:00 +28°C° 0 mm 2 m/s 714 mmHg 55%
    10:00 +31°C° 0 mm 2 m/s 715 mmHg 44%
    11:00 +31°C° 0 mm 2 m/s 714 mmHg 42%
    12:00 +33°C° 0 mm 3 m/s 713 mmHg 41%
    13:00 +34°C° 0 mm 3 m/s 712 mmHg 39%
    14:00 +33°C° 0 mm 3 m/s 712 mmHg 43%
    15:00 +31°C° 0 mm 3 m/s 711 mmHg 47%
    16:00 +30°C° 0 mm 3 m/s 710 mmHg 51%
    17:00 +28°C° 0 mm 3 m/s 711 mmHg 60%
    18:00 +27°C° 0 mm 2 m/s 711 mmHg 70%
    19:00 +25°C° 0 mm 2 m/s 711 mmHg 79%
    20:00 +24°C° 0 mm 2 m/s 711 mmHg 81%
    21:00 +24°C° 0 mm 2 m/s 712 mmHg 84%
    22:00 +23°C° 0 mm 1 m/s 712 mmHg 86%
    23:00 +23°C° 0 mm 1 m/s 712 mmHg 87%
    Arată mai mult